HAZ540 ZSHC-RCTP

Flight info

Callsign HAZ540
Flight time 1h 40m
Altitude 34100
Route UGAGO8D UGAGO A470 BZ/K0870S1070 R596 SULEM/N0470F340 R596 BERBA B576 BAKER BAKER1A
Aircraft B738/M-SDE2E3FGHIRWXY/LB1

Departure

Time 2026-05-03 23:00
Airport Hangzhou Xiaoshan International Airport (ZSHC)

Arrival

Time 2026-05-04 00:40
Airport Taiwan Taoyuan International Airport (RCTP)
Time Latitude Longitude Altitude Speed Heading
2026-05-03 22:38 30.23629 120.43491 31 ft 0 kts 242°
2026-05-03 22:49 30.23630 120.43494 31 ft 2 kts 242°
2026-05-03 22:49 30.23639 120.43513 30 ft 3 kts 242°
2026-05-03 22:49 30.23649 120.43534 29 ft 3 kts 240°
2026-05-03 22:49 30.23659 120.43554 28 ft 3 kts 234°
2026-05-03 22:50 30.23672 120.43571 29 ft 3 kts 216°
2026-05-03 22:50 30.23686 120.43579 31 ft 2 kts 168°
2026-05-03 22:50 30.23691 120.43578 30 ft 0 kts 152°
2026-05-03 22:52 30.23689 120.43579 29 ft 1 kts 152°
2026-05-03 22:53 30.23669 120.43592 31 ft 6 kts 152°
2026-05-03 22:53 30.23621 120.43622 31 ft 10 kts 152°
2026-05-03 22:53 30.23546 120.43667 31 ft 14 kts 153°
2026-05-03 22:53 30.23459 120.43735 29 ft 16 kts 141°
2026-05-03 22:54 30.23355 120.43778 31 ft 15 kts 152°
2026-05-03 22:54 30.23328 120.43853 31 ft 10 kts 69°
2026-05-03 22:54 30.23360 120.43925 31 ft 10 kts 64°
2026-05-03 22:54 30.23391 120.43997 31 ft 10 kts 64°
2026-05-03 22:55 30.23420 120.44068 31 ft 10 kts 64°
2026-05-03 22:55 30.23449 120.44136 31 ft 9 kts 64°
2026-05-03 22:55 30.23480 120.44201 30 ft 9 kts 62°
2026-05-03 22:55 30.23512 120.44270 31 ft 11 kts 63°
2026-05-03 22:56 30.23553 120.44348 32 ft 12 kts 73°
2026-05-03 22:56 30.23586 120.44435 31 ft 12 kts 63°
2026-05-03 22:56 30.23623 120.44517 31 ft 11 kts 61°
2026-05-03 22:56 30.23658 120.44598 31 ft 11 kts 63°
2026-05-03 22:57 30.23692 120.44676 31 ft 11 kts 63°
2026-05-03 22:57 30.23727 120.44758 31 ft 12 kts 64°
2026-05-03 22:57 30.23766 120.44845 31 ft 12 kts 62°
2026-05-03 22:57 30.23806 120.44932 31 ft 12 kts 62°
2026-05-03 22:58 30.23818 120.45019 30 ft 12 kts 133°
2026-05-03 22:58 30.23741 120.45066 29 ft 13 kts 153°
2026-05-03 22:58 30.23662 120.45042 28 ft 13 kts 238°
2026-05-03 22:58 30.23658 120.45035 28 ft 1 kts 240°
2026-05-03 22:59 30.23645 120.45007 28 ft 17 kts 242°
2026-05-03 22:59 30.23530 120.44745 31 ft 55 kts 243°
2026-05-03 22:59 30.23301 120.44234 29 ft 87 kts 243°
2026-05-03 22:59 30.22902 120.43343 34 ft 163 kts 241°
2026-05-03 23:00 30.22287 120.41990 395 ft 207 kts 243°
2026-05-03 23:00 30.21543 120.40497 1505 ft 219 kts 239°
2026-05-03 23:00 30.20478 120.39203 2615 ft 228 kts 223°
2026-05-03 23:00 30.19191 120.38038 3460 ft 249 kts 223°
2026-05-03 23:01 30.17747 120.36623 3622 ft 299 kts 227°
2026-05-03 23:01 30.16173 120.34757 3649 ft 346 kts 231°
2026-05-03 23:01 30.14625 120.32668 4998 ft 336 kts 233°
2026-05-03 23:01 30.13163 120.30657 6511 ft 318 kts 232°
2026-05-03 23:02 30.11769 120.28765 7910 ft 301 kts 232°
2026-05-03 23:02 30.10441 120.26988 9289 ft 285 kts 232°
2026-05-03 23:02 30.09180 120.25310 10597 ft 269 kts 232°
2026-05-03 23:02 30.07989 120.23715 11688 ft 260 kts 235°
2026-05-03 23:03 30.07144 120.21890 12523 ft 254 kts 251°
2026-05-03 23:03 30.06634 120.19921 13250 ft 260 kts 255°
2026-05-03 23:03 30.06182 120.17877 13896 ft 265 kts 256°
2026-05-03 23:03 30.05734 120.15810 14534 ft 267 kts 255°
2026-05-03 23:04 30.05279 120.13733 14846 ft 268 kts 255°
2026-05-03 23:04 30.04816 120.11649 14945 ft 268 kts 255°
2026-05-03 23:04 30.04348 120.09562 14949 ft 268 kts 255°
2026-05-03 23:04 30.03878 120.07486 14939 ft 267 kts 255°
2026-05-03 23:05 30.03409 120.05423 14944 ft 266 kts 255°
2026-05-03 23:05 30.02938 120.03361 14947 ft 265 kts 255°
2026-05-03 23:05 30.02460 120.01278 14940 ft 265 kts 255°
2026-05-03 23:05 30.01881 119.99263 14928 ft 269 kts 245°
2026-05-03 23:06 30.00956 119.97313 14970 ft 294 kts 242°
2026-05-03 23:06 29.99872 119.95158 14971 ft 318 kts 242°
2026-05-03 23:06 29.98719 119.92881 14976 ft 339 kts 241°
2026-05-03 23:06 29.97520 119.90505 14954 ft 352 kts 242°
2026-05-03 23:07 29.96268 119.88013 14947 ft 356 kts 242°
2026-05-03 23:07 29.95028 119.85532 14957 ft 358 kts 242°
2026-05-03 23:07 29.93776 119.83023 14951 ft 364 kts 242°
2026-05-03 23:07 29.92504 119.80470 14950 ft 369 kts 242°
2026-05-03 23:08 29.91220 119.77886 14959 ft 373 kts 242°
2026-05-03 23:08 29.89931 119.75298 14944 ft 371 kts 242°
2026-05-03 23:08 29.88647 119.72724 14945 ft 371 kts 242°
2026-05-03 23:08 29.87288 119.70205 14928 ft 372 kts 233°
2026-05-03 23:09 29.85360 119.68203 14962 ft 380 kts 218°
2026-05-03 23:09 29.82973 119.66782 15118 ft 394 kts 206°
2026-05-03 23:09 29.80237 119.66094 15400 ft 412 kts 191°
2026-05-03 23:09 29.77343 119.65935 15715 ft 418 kts 188°
2026-05-03 23:10 29.74420 119.65828 16021 ft 423 kts 188°
2026-05-03 23:10 29.71463 119.65673 16317 ft 427 kts 189°
2026-05-03 23:10 29.68490 119.65485 16651 ft 430 kts 189°
2026-05-03 23:10 29.65497 119.65283 16984 ft 432 kts 189°
2026-05-03 23:11 29.62486 119.65084 17278 ft 436 kts 189°
2026-05-03 23:11 29.59438 119.64950 17600 ft 439 kts 187°
2026-05-03 23:11 29.56378 119.64897 17925 ft 441 kts 186°
2026-05-03 23:11 29.53325 119.64846 18404 ft 438 kts 187°
2026-05-03 23:12 29.50282 119.64704 18732 ft 437 kts 188°
2026-05-03 23:12 29.47288 119.64504 19526 ft 423 kts 189°
2026-05-03 23:12 29.44386 119.64299 20309 ft 415 kts 189°
2026-05-03 23:12 29.41529 119.64097 21009 ft 409 kts 189°
2026-05-03 23:13 29.38695 119.63902 21601 ft 406 kts 188°
2026-05-03 23:13 29.35884 119.63715 22164 ft 405 kts 188°
2026-05-03 23:13 29.33075 119.63533 22688 ft 404 kts 188°
2026-05-03 23:13 29.30252 119.63353 23028 ft 408 kts 188°
2026-05-03 23:14 29.27392 119.63170 23207 ft 416 kts 188°
2026-05-03 23:14 29.24479 119.62986 23433 ft 421 kts 188°
2026-05-03 23:14 29.21536 119.62802 23653 ft 426 kts 188°
2026-05-03 23:14 29.18565 119.62618 23933 ft 428 kts 188°
2026-05-03 23:15 29.15588 119.62435 24253 ft 429 kts 188°
2026-05-03 23:15 29.12568 119.62247 24562 ft 429 kts 188°
2026-05-03 23:15 29.09622 119.62064 24822 ft 431 kts 188°
2026-05-03 23:15 29.06622 119.61876 25083 ft 433 kts 188°
2026-05-03 23:16 29.03610 119.61687 25339 ft 434 kts 188°
2026-05-03 23:16 29.00589 119.61498 25591 ft 436 kts 188°
2026-05-03 23:16 28.97553 119.61309 25834 ft 437 kts 188°
2026-05-03 23:16 28.94511 119.61119 26068 ft 439 kts 188°
2026-05-03 23:17 28.91451 119.60928 26295 ft 441 kts 188°
2026-05-03 23:17 28.88378 119.60737 26513 ft 443 kts 188°
2026-05-03 23:17 28.85290 119.60544 26732 ft 445 kts 188°
2026-05-03 23:17 28.82146 119.60348 26964 ft 447 kts 189°
2026-05-03 23:18 28.79037 119.60156 27194 ft 449 kts 189°
2026-05-03 23:18 28.75917 119.59962 27414 ft 450 kts 189°
2026-05-03 23:18 28.72780 119.59768 27612 ft 452 kts 189°
2026-05-03 23:18 28.69635 119.59573 27828 ft 453 kts 189°
2026-05-03 23:19 28.66484 119.59378 28055 ft 454 kts 189°
2026-05-03 23:19 28.63321 119.59182 28258 ft 455 kts 189°
2026-05-03 23:19 28.60155 119.58987 28479 ft 456 kts 189°
2026-05-03 23:19 28.56992 119.58792 28799 ft 454 kts 189°
2026-05-03 23:20 28.53837 119.58597 29073 ft 454 kts 189°
2026-05-03 23:20 28.51750 119.58468 29239 ft 454 kts 189°
2026-05-03 23:20 28.48603 119.58274 29540 ft 453 kts 189°
2026-05-03 23:20 28.45461 119.58081 29921 ft 451 kts 189°
2026-05-03 23:21 28.42334 119.57904 30274 ft 450 kts 189°
2026-05-03 23:21 28.39213 119.57738 30567 ft 449 kts 189°
2026-05-03 23:21 28.36095 119.57577 30907 ft 447 kts 189°
2026-05-03 23:21 28.32999 119.57416 31281 ft 444 kts 189°
2026-05-03 23:22 28.26859 119.57091 32015 ft 440 kts 189°
2026-05-03 23:22 28.23807 119.56927 32366 ft 438 kts 190°
2026-05-03 23:22 28.20764 119.56764 32719 ft 436 kts 190°
2026-05-03 23:23 28.17737 119.56637 33081 ft 438 kts 185°
2026-05-03 23:23 28.14684 119.57230 33357 ft 456 kts 169°
2026-05-03 23:23 28.11778 119.58813 33613 ft 474 kts 154°
2026-05-03 23:23 28.09242 119.61291 33826 ft 491 kts 138°
2026-05-03 23:24 28.07314 119.64555 34011 ft 510 kts 120°
2026-05-03 23:24 28.05979 119.68296 34263 ft 514 kts 116°
2026-05-03 23:24 28.03590 119.75988 34249 ft 519 kts 115°
2026-05-03 23:25 28.01207 119.83714 34256 ft 513 kts 115°
2026-05-03 23:25 27.98769 119.91277 34253 ft 511 kts 116°
2026-05-03 23:26 27.96288 119.98816 34268 ft 511 kts 116°
2026-05-03 23:26 27.93797 120.06357 34266 ft 513 kts 116°
2026-05-03 23:27 27.91294 120.13938 34237 ft 516 kts 116°
2026-05-03 23:27 27.88777 120.21552 34251 ft 518 kts 116°
2026-05-03 23:28 27.86251 120.29193 34265 ft 520 kts 116°
2026-05-03 23:28 27.83707 120.36864 34250 ft 521 kts 116°
2026-05-03 23:29 27.81166 120.44519 34232 ft 518 kts 116°
2026-05-03 23:29 27.78630 120.52130 34251 ft 517 kts 116°
2026-05-03 23:30 27.76093 120.59730 34243 ft 517 kts 116°
2026-05-03 23:30 27.74059 120.67571 34272 ft 525 kts 106°
2026-05-03 23:31 27.72720 120.75690 34255 ft 527 kts 104°
2026-05-03 23:31 27.71406 120.83845 34243 ft 529 kts 105°
2026-05-03 23:32 27.70028 120.91998 34256 ft 529 kts 105°
2026-05-03 23:32 27.68612 121.00157 34243 ft 531 kts 105°
2026-05-03 23:33 27.67186 121.08328 34249 ft 531 kts 105°
2026-05-03 23:33 27.65758 121.16510 34247 ft 532 kts 105°
2026-05-03 23:34 27.64327 121.24692 34252 ft 531 kts 105°
2026-05-03 23:34 27.62893 121.32861 34254 ft 531 kts 105°
2026-05-03 23:35 27.61453 121.41031 34244 ft 531 kts 105°
2026-05-03 23:35 27.60011 121.49186 34255 ft 530 kts 105°
2026-05-03 23:36 27.58568 121.57318 34245 ft 529 kts 106°
2026-05-03 23:36 27.57161 121.65449 34251 ft 528 kts 105°
2026-05-03 23:37 27.55786 121.73581 34245 ft 528 kts 105°
2026-05-03 23:37 27.54407 121.81697 34256 ft 527 kts 105°
2026-05-03 23:38 27.53017 121.89802 34245 ft 527 kts 105°
2026-05-03 23:38 27.51612 121.97954 34251 ft 526 kts 105°
2026-05-03 23:39 27.50212 122.06047 34251 ft 526 kts 105°
2026-05-03 23:39 27.48807 122.14140 34243 ft 526 kts 105°
2026-05-03 23:40 27.47399 122.22228 34248 ft 526 kts 105°
2026-05-03 23:40 27.45986 122.30312 34238 ft 526 kts 105°
2026-05-03 23:41 27.44570 122.38392 34249 ft 526 kts 105°
2026-05-03 23:41 27.43735 122.46596 34237 ft 532 kts 92°
2026-05-03 23:42 27.43758 122.50731 34338 ft 531 kts 91°
2026-05-03 23:42 27.43816 122.54913 34245 ft 535 kts 91°
2026-05-03 23:42 27.43875 122.63263 34249 ft 532 kts 92°
2026-05-03 23:43 27.43850 122.71573 34256 ft 529 kts 92°
2026-05-03 23:43 27.42866 122.79646 34208 ft 515 kts 118°
2026-05-03 23:44 27.41153 122.83114 34257 ft 504 kts 134°
2026-05-03 23:44 27.38832 122.86002 34271 ft 494 kts 146°
2026-05-03 23:44 27.36096 122.88282 34206 ft 484 kts 159°
2026-05-03 23:44 27.33066 122.89791 34296 ft 472 kts 168°
2026-05-03 23:45 27.26840 122.92180 34257 ft 474 kts 169°
2026-05-03 23:45 27.20607 122.94696 34247 ft 477 kts 168°
2026-05-03 23:46 27.14384 122.97284 34239 ft 476 kts 168°
2026-05-03 23:46 27.11244 122.98328 34162 ft 463 kts 181°
2026-05-03 23:46 27.08122 122.98311 34257 ft 440 kts 196°
2026-05-03 23:47 27.05193 122.97502 34227 ft 429 kts 208°
2026-05-03 23:47 27.02586 122.96008 34260 ft 416 kts 219°
2026-05-03 23:47 26.97871 122.92259 34250 ft 415 kts 221°
2026-05-03 23:48 26.93163 122.88420 34242 ft 416 kts 221°
2026-05-03 23:48 26.88455 122.84651 34234 ft 416 kts 220°
2026-05-03 23:49 26.83726 122.80904 34229 ft 417 kts 220°
2026-05-03 23:49 26.78991 122.77163 34237 ft 417 kts 220°
2026-05-03 23:50 26.75065 122.74063 34261 ft 413 kts 220°
2026-05-03 23:50 26.69608 122.69756 34249 ft 409 kts 220°
2026-05-03 23:51 26.64962 122.66090 34241 ft 408 kts 220°
2026-05-03 23:51 26.60321 122.62427 34241 ft 409 kts 220°
2026-05-03 23:52 26.55642 122.58734 34227 ft 414 kts 220°
2026-05-03 23:52 26.50933 122.55025 34236 ft 414 kts 220°
2026-05-03 23:53 26.46225 122.51321 34234 ft 413 kts 220°
2026-05-03 23:53 26.41535 122.47635 34235 ft 412 kts 220°
2026-05-03 23:54 26.36846 122.43952 34236 ft 412 kts 220°
2026-05-03 23:54 26.32157 122.40273 34241 ft 412 kts 220°
2026-05-03 23:55 26.28263 122.37219 34240 ft 412 kts 220°
2026-05-03 23:55 26.23568 122.33542 34238 ft 413 kts 220°
2026-05-03 23:56 26.18839 122.29840 34228 ft 413 kts 220°
2026-05-03 23:56 26.14136 122.26165 34242 ft 413 kts 220°
2026-05-03 23:57 26.09414 122.22512 34230 ft 414 kts 220°
2026-05-03 23:57 26.04675 122.18877 34235 ft 414 kts 220°
2026-05-03 23:58 25.99935 122.15240 34223 ft 414 kts 220°
2026-05-03 23:58 25.95194 122.11601 34234 ft 415 kts 220°
2026-05-03 23:59 25.90437 122.07952 34221 ft 416 kts 220°
2026-05-03 23:59 25.85678 122.04305 34226 ft 416 kts 219°
2026-05-04 00:00 25.80886 122.00635 33474 ft 423 kts 219°
2026-05-04 00:00 25.78474 121.98790 32780 ft 420 kts 219°
2026-05-04 00:00 25.76064 121.96948 31983 ft 421 kts 218°
2026-05-04 00:01 25.73650 121.95103 31238 ft 422 kts 218°
2026-05-04 00:01 25.71222 121.93251 30353 ft 426 kts 217°
2026-05-04 00:01 25.68760 121.91381 29226 ft 432 kts 217°
2026-05-04 00:01 25.66267 121.89480 28087 ft 437 kts 219°
2026-05-04 00:02 25.64020 121.87216 26826 ft 439 kts 232°
2026-05-04 00:02 25.62311 121.84400 25737 ft 442 kts 242°
2026-05-04 00:02 25.60841 121.81445 25047 ft 435 kts 242°
2026-05-04 00:02 25.59387 121.78510 24306 ft 432 kts 242°
2026-05-04 00:03 25.57943 121.75621 23551 ft 427 kts 242°
2026-05-04 00:03 25.56498 121.72766 22820 ft 422 kts 242°
2026-05-04 00:03 25.55067 121.69962 22082 ft 416 kts 242°
2026-05-04 00:03 25.53650 121.67197 21428 ft 409 kts 242°
2026-05-04 00:04 25.52253 121.64476 20761 ft 404 kts 242°
2026-05-04 00:04 25.50875 121.61793 20088 ft 399 kts 241°
2026-05-04 00:04 25.49513 121.59143 19456 ft 394 kts 241°
2026-05-04 00:04 25.48075 121.56586 18775 ft 392 kts 234°
2026-05-04 00:05 25.46297 121.54300 18130 ft 389 kts 230°
2026-05-04 00:05 25.44489 121.52094 17352 ft 385 kts 230°
2026-05-04 00:05 25.42730 121.49896 16754 ft 378 kts 231°
2026-05-04 00:05 25.41017 121.47715 16096 ft 373 kts 231°
2026-05-04 00:06 25.39338 121.45562 15502 ft 367 kts 231°
2026-05-04 00:06 25.37684 121.43445 14964 ft 361 kts 231°
2026-05-04 00:06 25.36045 121.41350 14347 ft 359 kts 231°
2026-05-04 00:06 25.34418 121.39273 13718 ft 356 kts 230°
2026-05-04 00:07 25.32806 121.37216 13087 ft 351 kts 230°
2026-05-04 00:07 25.31218 121.35191 12508 ft 346 kts 231°
2026-05-04 00:07 25.29648 121.33188 11913 ft 343 kts 231°
2026-05-04 00:07 25.28093 121.31207 11386 ft 339 kts 231°
2026-05-04 00:08 25.26589 121.29292 11271 ft 323 kts 231°
2026-05-04 00:08 25.25129 121.27432 10983 ft 315 kts 231°
2026-05-04 00:08 25.23724 121.25644 10896 ft 301 kts 231°
2026-05-04 00:08 25.22360 121.23907 10673 ft 297 kts 231°
2026-05-04 00:09 25.21009 121.22187 10668 ft 289 kts 231°
2026-05-04 00:09 25.19719 121.20545 10622 ft 285 kts 231°
2026-05-04 00:09 25.18433 121.18909 10552 ft 279 kts 232°
2026-05-04 00:09 25.17179 121.17314 10490 ft 270 kts 231°
2026-05-04 00:10 25.15967 121.15772 10472 ft 262 kts 231°
2026-05-04 00:10 25.14782 121.14267 10398 ft 257 kts 231°
2026-05-04 00:10 25.13630 121.12804 10328 ft 247 kts 231°
2026-05-04 00:10 25.12509 121.11383 10256 ft 237 kts 231°
2026-05-04 00:11 25.11463 121.10028 10177 ft 226 kts 237°
2026-05-04 00:11 25.10816 121.08478 9962 ft 222 kts 255°
2026-05-04 00:11 25.10619 121.06797 9651 ft 224 kts 269°
2026-05-04 00:11 25.10893 121.05110 9311 ft 230 kts 285°
2026-05-04 00:12 25.11679 121.03558 9068 ft 237 kts 303°
2026-05-04 00:12 25.12971 121.02346 8805 ft 248 kts 323°
2026-05-04 00:12 25.14631 121.01706 8559 ft 261 kts 346°
2026-05-04 00:12 25.16472 121.01816 8306 ft 272 kts 12°
2026-05-04 00:13 25.18205 121.02702 8067 ft 279 kts 36°
2026-05-04 00:13 25.19583 121.04214 7868 ft 280 kts 47°
2026-05-04 00:13 25.20889 121.05828 7632 ft 283 kts 48°
2026-05-04 00:13 25.22203 121.07457 7399 ft 284 kts 48°
2026-05-04 00:14 25.23467 121.09129 7131 ft 282 kts 61°
2026-05-04 00:14 25.24113 121.11135 6900 ft 275 kts 87°
2026-05-04 00:14 25.23994 121.13181 6680 ft 263 kts 111°
2026-05-04 00:14 25.23220 121.14950 6441 ft 252 kts 132°
2026-05-04 00:15 25.21961 121.16228 6197 ft 244 kts 151°
2026-05-04 00:15 25.20413 121.16908 5945 ft 239 kts 169°
2026-05-04 00:15 25.18761 121.16941 5691 ft 238 kts 187°
2026-05-04 00:15 25.17174 121.16429 5429 ft 240 kts 201°
2026-05-04 00:16 25.15808 121.15363 5179 ft 246 kts 222°
2026-05-04 00:16 25.14648 121.13973 4971 ft 246 kts 223°
2026-05-04 00:16 25.13495 121.12560 4708 ft 248 kts 224°
2026-05-04 00:16 25.12342 121.11141 4464 ft 248 kts 224°
2026-05-04 00:17 25.11232 121.09691 4304 ft 247 kts 237°
2026-05-04 00:17 25.10742 121.07930 4231 ft 237 kts 270°
2026-05-04 00:17 25.11051 121.06213 4188 ft 226 kts 300°
2026-05-04 00:17 25.11971 121.04851 4159 ft 220 kts 327°
2026-05-04 00:18 25.13285 121.04192 4140 ft 198 kts
2026-05-04 00:18 25.14555 121.04424 4156 ft 180 kts 31°
2026-05-04 00:18 25.15521 121.05214 4152 ft 169 kts 56°
2026-05-04 00:18 25.16045 121.06335 4139 ft 163 kts 77°
2026-05-04 00:19 25.16076 121.07573 4150 ft 165 kts 99°
2026-05-04 00:19 25.15586 121.08754 4156 ft 178 kts 122°
2026-05-04 00:19 25.14607 121.09645 4161 ft 190 kts 147°
2026-05-04 00:19 25.13305 121.10015 4167 ft 197 kts 165°
2026-05-04 00:20 25.11923 121.10064 4132 ft 207 kts 187°
2026-05-04 00:20 25.10695 121.09187 4173 ft 218 kts 225°
2026-05-04 00:20 25.09588 121.08072 4126 ft 214 kts 195°
2026-05-04 00:20 25.08227 121.08002 4161 ft 191 kts 149°
2026-05-04 00:21 25.07223 121.08872 4190 ft 185 kts 130°
2026-05-04 00:21 25.06255 121.09850 4162 ft 190 kts 132°
2026-05-04 00:21 25.05156 121.10640 4120 ft 196 kts 161°
2026-05-04 00:21 25.03800 121.10388 4158 ft 211 kts 206°
2026-05-04 00:22 25.02671 121.09301 4164 ft 223 kts 226°
2026-05-04 00:22 25.01537 121.08166 4130 ft 216 kts 196°
2026-05-04 00:22 25.00177 121.08091 4158 ft 186 kts 149°
2026-05-04 00:22 24.99378 121.09038 4157 ft 166 kts 103°
2026-05-04 00:23 24.99135 121.10276 4164 ft 165 kts 96°
2026-05-04 00:23 24.99169 121.11530 4152 ft 163 kts 79°
2026-05-04 00:23 24.99489 121.12718 4152 ft 161 kts 71°
2026-05-04 00:23 24.99865 121.13853 4145 ft 157 kts 69°
2026-05-04 00:24 25.00429 121.14876 4156 ft 156 kts 59°
2026-05-04 00:24 25.01069 121.15832 4085 ft 148 kts 53°
2026-05-04 00:24 25.01780 121.16614 3710 ft 144 kts 47°
2026-05-04 00:24 25.02505 121.17398 3067 ft 150 kts 52°
2026-05-04 00:25 25.03169 121.18301 2432 ft 153 kts 56°
2026-05-04 00:25 25.03801 121.19227 1846 ft 153 kts 57°
2026-05-04 00:25 25.04461 121.20178 1172 ft 158 kts 54°
2026-05-04 00:25 25.05122 121.21114 689 ft 151 kts 51°
2026-05-04 00:26 25.05783 121.21971 293 ft 142 kts 50°
2026-05-04 00:26 25.06400 121.22755 137 ft 121 kts 51°
2026-05-04 00:26 25.06879 121.23342 141 ft 97 kts 49°
2026-05-04 00:26 25.07472 121.24085 372 ft 150 kts 48°
2026-05-04 00:27 25.08282 121.25034 1055 ft 188 kts 48°
2026-05-04 00:27 25.09238 121.26101 1935 ft 202 kts 46°
2026-05-04 00:27 25.10296 121.27186 2839 ft 214 kts 45°
2026-05-04 00:27 25.11499 121.28334 3411 ft 244 kts 41°
2026-05-04 00:28 25.13095 121.29298 3782 ft 283 kts 24°
2026-05-04 00:28 25.15099 121.29656 3532 ft 304 kts
2026-05-04 00:28 25.17267 121.29097 2119 ft 347 kts 338°
2026-05-04 00:28 25.19314 121.27414 1933 ft 386 kts 319°
2026-05-04 00:29 25.20924 121.25010 3217 ft 384 kts 301°
2026-05-04 00:29 25.21830 121.22321 3515 ft 371 kts 284°
2026-05-04 00:29 25.22017 121.19468 2923 ft 374 kts 266°
2026-05-04 00:29 25.21489 121.16742 3031 ft 350 kts 249°
2026-05-04 00:30 25.20822 121.15192 3327 ft 326 kts 237°
2026-05-04 00:30 25.19547 121.13280 3675 ft 294 kts 226°
2026-05-04 00:30 25.18250 121.11630 3792 ft 275 kts 224°
2026-05-04 00:30 25.16937 121.10174 3750 ft 262 kts 218°
2026-05-04 00:31 25.15561 121.08829 3263 ft 270 kts 217°
2026-05-04 00:31 25.14097 121.07421 2533 ft 289 kts 218°
2026-05-04 00:31 25.12580 121.05950 2314 ft 285 kts 217°
2026-05-04 00:31 25.11136 121.04551 2427 ft 267 kts 218°
2026-05-04 00:32 25.09793 121.03238 2524 ft 249 kts 218°
2026-05-04 00:32 25.08535 121.02015 2625 ft 237 kts 218°
2026-05-04 00:32 25.07278 121.00842 2694 ft 234 kts 211°
2026-05-04 00:32 25.05875 120.99990 2752 ft 226 kts 193°
2026-05-04 00:33 25.04384 120.99635 2648 ft 214 kts 175°
2026-05-04 00:33 25.01629 121.00083 2279 ft 189 kts 152°
2026-05-04 00:33 25.00460 121.00669 2123 ft 181 kts 139°
2026-05-04 00:34 24.99443 121.01457 1991 ft 178 kts 132°
2026-05-04 00:34 24.98544 121.02368 1879 ft 173 kts 124°
2026-05-04 00:34 24.97776 121.03333 1772 ft 162 kts 121°
2026-05-04 00:34 24.97062 121.04268 1653 ft 155 kts 121°
2026-05-04 00:35 24.96391 121.05177 1543 ft 151 kts 120°
2026-05-04 00:35 24.95743 121.06076 1533 ft 149 kts 118°
2026-05-04 00:35 24.95262 121.07062 1578 ft 145 kts 99°
2026-05-04 00:35 24.95208 121.08144 1542 ft 141 kts 77°
2026-05-04 00:36 24.95625 121.09136 1403 ft 146 kts 56°
2026-05-04 00:36 24.96236 121.10000 1484 ft 138 kts 51°
2026-05-04 00:36 24.96929 121.10798 1645 ft 145 kts 49°
2026-05-04 00:36 24.97645 121.11584 1707 ft 145 kts 50°
2026-05-04 00:37 24.98329 121.12398 1785 ft 144 kts 51°
2026-05-04 00:37 24.98988 121.13227 1838 ft 144 kts 47°
2026-05-04 00:37 24.99681 121.14014 1799 ft 142 kts 49°
2026-05-04 00:37 25.00357 121.14823 1581 ft 145 kts 53°
2026-05-04 00:38 25.01012 121.15615 1375 ft 128 kts 50°
2026-05-04 00:38 25.01543 121.16286 1272 ft 112 kts 54°
2026-05-04 00:38 25.02098 121.17032 1308 ft 143 kts 54°
2026-05-04 00:38 25.02712 121.17874 1362 ft 137 kts 53°
2026-05-04 00:39 25.03263 121.18683 1274 ft 129 kts 55°
2026-05-04 00:39 25.03816 121.19486 1042 ft 134 kts 52°
2026-05-04 00:39 25.04439 121.20276 783 ft 137 kts 49°
2026-05-04 00:39 25.05072 121.21072 543 ft 140 kts 50°
2026-05-04 00:40 25.05717 121.21883 273 ft 140 kts 49°
2026-05-04 00:40 25.06348 121.22687 124 ft 135 kts 50°
2026-05-04 00:40 25.06929 121.23399 97 ft 109 kts 47°
2026-05-04 00:40 25.07277 121.23862 91 ft 48 kts 49°
2026-05-04 00:41 25.07405 121.24026 93 ft 23 kts 49°
2026-05-04 00:41 25.07517 121.24143 94 ft 22 kts 32°
2026-05-04 00:41 25.07657 121.24207 91 ft 22 kts 17°
2026-05-04 00:41 25.07808 121.24269 87 ft 23 kts 18°
2026-05-04 00:42 25.07896 121.24252 83 ft 14 kts 321°
2026-05-04 00:42 25.07972 121.24177 83 ft 15 kts 309°
2026-05-04 00:42 25.07950 121.24085 83 ft 12 kts 233°
2026-05-04 00:42 25.07962 121.24043 82 ft 6 kts 326°
2026-05-04 00:43 25.07998 121.24013 82 ft 7 kts 321°
2026-05-04 00:43 25.08030 121.23984 83 ft 0 kts 321°
2026-05-04 00:43 25.08031 121.23984 83 ft 0 kts 321°